This demonstration page uses our WeatherBlox Daily Observations layout. Learn more.

Left ArrowRight Arrow

39.01783, -85.05884

Hourly Observations for December 20, 2017

Temp ( °F °C ) Dew Point ( °F °C ) Humidity (%) Winds ( mph kmh ) Pressure ( in mb ) Visibility ( mi km ) Precip ( " mm )
12:52 am 00:52 Cloudy with Mist and Fog 42 5.6 42 5.6 100 100 W 6 9 30.07 1018 3 5 0.00 0.00
1:52 am 01:52 Cloudy with Mist and Fog 42 5.6 42 5.6 100 100 Calm 30.06 1018 4 6 0.00 0.00
2:52 am 02:52 Cloudy with Mist and Fog 41 5 41 5 100 100 NNW 6 9 30.07 1018 4 6 0.00 0.00
3:52 am 03:52 Cloudy 40 4.4 38 3.3 93 93 N 5 7 30.06 1018 7 11 0.00 0.00
4:52 am 04:52 Cloudy 38 3.3 36 2.2 93 93 NNE 5 7 30.05 1018 7 11 0.00 0.00
5:52 am 05:52 Cloudy 40 4.4 35 1.7 83 83 Calm 30.08 1019 9 14 0.00 0.00
6:52 am 06:52 Cloudy 40 4.4 33 0.6 77 77 N 3 6 30.09 1019 10 16 0.00 0.00
7:52 am 07:52 Mostly Cloudy 37 2.8 33 0.6 86 86 NE 6 9 30.08 1019 10 16 0.00 0.00
8:52 am 08:52 Mostly Cloudy 40 4.4 29 -1.7 65 65 NE 7 11 30.09 1019 10 16 0.00 0.00
9:52 am 09:52 Mostly Cloudy 41 5 29 -1.7 62 62 NE 7 11 30.09 1019 10 16 0.00 0.00
10:52 am 10:52 Mostly Cloudy 41 5 28 -2.2 60 60 ENE 8 13 30.08 1019 10 16 0.00 0.00
11:52 am 11:52 Mostly Cloudy 42 5.6 26 -3.3 53 53 ENE 8 13 30.06 1018 10 16 0.00 0.00
12:52 pm 12:52 Mostly Sunny 46 7.8 25 -3.9 44 44 NNE 7 11 30.04 1017 10 16 0.00 0.00
1:52 pm 13:52 Mostly Sunny 47 8.3 21 -6.1 36 36 NE 8 13 30.01 1016 10 16 0.00 0.00
2:52 pm 14:52 Mostly Sunny 48 8.9 20 -6.7 33 33 NE 7 11 30.00 1016 10 16 0.00 0.00
3:52 pm 15:52 Mostly Sunny 48 8.9 22 -5.6 36 36 NE 10 17 30.01 1016 10 16 0.00 0.00
4:52 pm 16:52 Mostly Sunny 46 7.8 21 -6.1 37 37 NNE 12 19 30.02 1017 10 16 0.00 0.00
5:52 pm 17:52 Mostly Clear 43 6.1 21 -6.1 42 42 NNE 8 13 30.03 1017 10 16 0.00 0.00
6:52 pm 18:52 Partly Cloudy 41 5 22 -5.6 47 47 NNE 9 15 30.04 1017 10 16 0.00 0.00
7:52 pm 19:52 Clear 40 4.4 21 -6.1 47 47 NNE 8 13 30.05 1018 10 16 0.00 0.00
8:52 pm 20:52 Clear 38 3.3 22 -5.6 52 52 NE 6 9 30.04 1017 10 16 0.00 0.00
9:52 pm 21:52 Clear 35 1.7 23 -5 61 61 NE 6 9 30.05 1018 10 16 0.00 0.00
10:52 pm 22:52 Partly Cloudy 36 2.2 23 -5 59 59 NE 9 15 30.06 1018 10 16 0.00 0.00
11:52 pm 23:52 Clear 35 1.7 23 -5 61 61 ENE 12 19 30.05 1018 10 16 0.00 0.00

Powered by AerisWeather